Location: Capon Springs and Farms
(39.1310°N, 78.4814°W)
Time: 20:53:16
(UTC-04:00)

Envisat - Visible Passes

Search period start: 22 October 2019 00:00
Search period end: 01 November 2019 00:00
Orbit: 764 x 766 km, 98.1° (Epoch: 22 October)

Date Brightness Start Highest point End Pass type
(mag) Time Alt. Az. Time Alt. Az. Time Alt. Az.
22 Oct 3.1 18:56:21 10° SSE 19:01:15 53° ENE 19:06:12 10° N visible
22 Oct 5.8 20:37:24 10° SW 20:40:34 17° W 20:43:46 10° NW visible
23 Oct 4.5 19:58:51 10° SSW 20:03:32 37° W 20:08:15 10° NNW visible
24 Oct 3.0 19:21:37 10° SSE 19:26:42 86° WSW 19:31:48 10° NNW visible
25 Oct 3.4 18:45:18 10° SE 18:50:03 42° ENE 18:54:49 10° N visible
25 Oct 5.5 20:25:24 10° SW 20:29:13 21° W 20:33:02 10° NW visible
26 Oct 6.2 06:56:33 10° NE 06:59:33 16° E 07:02:34 10° SE visible
26 Oct 4.0 19:47:21 10° S 19:52:14 48° W 19:57:09 10° NNW visible
27 Oct 2.9 19:10:24 10° SSE 19:15:27 75° ENE 19:20:32 10° N visible
27 Oct 6.2 20:53:20 10° WSW 20:54:59 11° W 20:56:37 10° WNW visible
28 Oct 5.1 20:13:37 10° SSW 20:17:52 27° W 20:22:08 10° NW visible
29 Oct 6.5 06:46:15 10° ENE 06:48:10 12° E 06:50:05 10° ESE visible
29 Oct 3.5 19:35:56 10° S 19:40:56 62° W 19:45:59 10° NNW visible
30 Oct 3.0 18:59:15 10° SSE 19:04:12 58° ENE 19:09:12 10° N visible
30 Oct 5.9 20:40:43 10° SW 20:43:35 15° W 20:46:28 10° NW visible
31 Oct 5.9 07:10:01 10° NE 07:13:56 22° E 07:17:49 10° SE visible
31 Oct 4.7 20:01:57 10° SSW 20:06:31 34° W 20:11:08 10° NNW visible
